| time (UTC) | temp F | wind direction | speed MPH | gust MPH | rain 1hr in | rain 24hr in | rain mn in | humidity % | barometer mb |
| 20260904001014 | 76 | 184 | 0.0 | 0.0 | 0.00 | 0.53 | 0.07 | 83 | 1012.5 |
| 20260904000514 | 76 | 184 | 0.0 | 0.0 | 0.00 | 0.53 | 0.07 | 83 | 1012.4 |
| 20260904000014 | 76 | 184 | 0.0 | 0.0 | 0.00 | 0.53 | 0.07 | 83 | 1012.5 |
| 20260903235514 | 76 | 184 | 0.0 | 0.0 | 0.00 | 0.53 | 0.07 | 82 | 1012.4 |
| 20260903235013 | 77 | 184 | 0.0 | 0.0 | 0.00 | 0.53 | 0.07 | 82 | 1012.3 |
| 20260903234514 | 77 | 184 | 0.0 | 0.0 | 0.00 | 0.53 | 0.07 | 82 | 1012.4 |
| 20260903234013 | 77 | 184 | 0.0 | 0.0 | 0.00 | 0.53 | 0.07 | 82 | 1012.4 |
| 20260903233515 | 77 | 184 | 0.0 | 0.0 | 0.00 | 0.53 | 0.07 | 81 | 1012.5 |
| 20260903233012 | 78 | 184 | 0.0 | 0.0 | 0.00 | 0.53 | 0.07 | 81 | 1012.6 |
| 20260903232512 | 78 | 184 | 0.0 | 0.0 | 0.00 | 0.53 | 0.07 | 81 | 1012.6 |
| 20260903232012 | 78 | 184 | 0.0 | 0.0 | 0.00 | 0.53 | 0.07 | 81 | 1012.6 |
| 20260903231513 | 79 | 184 | 0.0 | 0.0 | 0.00 | 0.53 | 0.07 | 80 | 1012.6 |
| 20260903231012 | 79 | 184 | 0.0 | 0.0 | 0.00 | 0.53 | 0.07 | 80 | 1012.6 |
| 20260903230511 | 79 | 184 | 0.0 | 0.0 | 0.00 | 0.53 | 0.07 | 80 | 1012.6 |
| 20260903230018 | 79 | 184 | 0.0 | 0.0 | 0.00 | 0.53 | 0.07 | 80 | 1012.6 |
| 20260903225512 | 80 | 184 | 0.0 | 0.0 | 0.00 | 0.53 | 0.07 | 79 | 1012.5 |
| 20260903225012 | 80 | 184 | 0.0 | 0.0 | 0.00 | 0.53 | 0.07 | 79 | 1012.3 |
| 20260903224521 | 80 | 184 | 0.0 | 0.0 | 0.00 | 0.53 | 0.07 | 79 | 1012.2 |
| 20260903224011 | 80 | 184 | 0.0 | 0.0 | 0.00 | 0.53 | 0.07 | 79 | 1012.3 |
| 20260903223511 | 81 | 184 | 0.0 | 0.0 | 0.00 | 0.53 | 0.07 | 78 | 1012.2 |
| 20260903223010 | 81 | 184 | 0.0 | 0.0 | 0.00 | 0.53 | 0.07 | 78 | 1012.2 |
| 20260903222509 | 81 | 184 | 0.0 | 0.0 | 0.00 | 0.53 | 0.07 | 77 | 1012.1 |
| 20260903222011 | 81 | 184 | 0.0 | 0.0 | 0.00 | 0.53 | 0.07 | 77 | 1012.0 |
| 20260903221511 | 82 | 184 | 0.0 | 0.0 | 0.00 | 0.53 | 0.07 | 77 | 1012.1 |
| 20260903221009 | 82 | 184 | 0.0 | 0.0 | 0.00 | 0.53 | 0.07 | 77 | 1012.0 |
| 20260903220509 | 82 | 184 | 0.0 | 0.0 | 0.00 | 0.53 | 0.07 | 76 | 1011.9 |
| 20260903220016 | 83 | 184 | 0.0 | 0.0 | 0.00 | 0.53 | 0.07 | 76 | 1011.9 |
| 20260903215512 | 83 | 184 | 0.0 | 0.0 | 0.00 | 0.53 | 0.07 | 75 | 1011.9 |
| 20260903215009 | 83 | 184 | 0.0 | 0.0 | 0.00 | 0.53 | 0.07 | 74 | 1011.9 |
| 20260903214506 | 83 | 184 | 0.0 | 0.0 | 0.00 | 0.53 | 0.07 | 74 | 1012.0 |
| 20260903214006 | 84 | 184 | 0.0 | 0.0 | 0.00 | 0.53 | 0.07 | 73 | 1012.0 |
| 20260903213505 | 84 | 184 | 0.0 | 0.0 | 0.00 | 0.53 | 0.07 | 72 | 1012.1 |
| 20260903213010 | 84 | 184 | 0.0 | 2.0 | 0.00 | 0.53 | 0.07 | 71 | 1012.1 |
| 20260903212508 | 85 | 259 | 0.0 | 6.0 | 0.00 | 0.53 | 0.07 | 70 | 1012.2 |
| 20260903212005 | 85 | 259 | 1.0 | 6.0 | 0.00 | 0.53 | 0.07 | 69 | 1012.1 |
| 20260903211511 | 85 | 285 | 0.0 | 5.0 | 0.00 | 0.53 | 0.07 | 69 | 1012.1 |
| 20260903211004 | 85 | 219 | 1.0 | 7.0 | 0.00 | 0.53 | 0.07 | 69 | 1012.1 |
| 20260903210504 | 85 | 246 | 4.0 | 7.0 | 0.00 | 0.53 | 0.07 | 68 | 1012.3 |
| 20260903210005 | 85 | 249 | 2.0 | 6.0 | 0.00 | 0.53 | 0.07 | 68 | 1012.2 |
| 20260903205503 | 85 | 227 | 0.0 | 6.0 | 0.00 | 0.54 | 0.07 | 68 | 1012.2 |
| 20260903205002 | 85 | 207 | 3.0 | 9.0 | 0.00 | 0.54 | 0.07 | 68 | 1012.3 |
| 20260903204501 | 85 | 231 | 0.0 | 5.0 | 0.00 | 0.54 | 0.07 | 71 | 1012.3 |
| 20260903204002 | 85 | 226 | 2.0 | 5.0 | 0.00 | 0.54 | 0.07 | 70 | 1012.3 |
| 20260903203600 | 84 | 293 | 2.0 | 6.0 | 0.00 | 0.54 | 0.07 | 71 | 1012.4 |
| 20260903203059 | 84 | 267 | 2.0 | 5.0 | 0.00 | 0.54 | 0.07 | 73 | 1012.4 |
| 20260903202559 | 84 | 275 | 0.0 | 7.0 | 0.00 | 0.54 | 0.07 | 74 | 1012.6 |
| 20260903202058 | 84 | 280 | 0.0 | 6.0 | 0.00 | 0.54 | 0.07 | 72 | 1012.7 |
| 20260903201558 | 84 | 281 | 0.0 | 9.0 | 0.00 | 0.54 | 0.07 | 70 | 1012.8 |
| 20260903201058 | 84 | 259 | 3.0 | 9.0 | 0.00 | 0.54 | 0.07 | 70 | 1012.8 |
| 20260903200557 | 84 | 262 | 2.0 | 10.0 | 0.00 | 0.54 | 0.07 | 69 | 1012.8 |
| 20260903200058 | 85 | 264 | 4.0 | 10.0 | 0.00 | 0.54 | 0.07 | 68 | 1012.8 |
| 20260903195600 | 85 | 290 | 1.0 | 7.0 | 0.00 | 0.54 | 0.07 | 70 | 1012.8 |
| 20260903195058 | 85 | 123 | 0.0 | 7.0 | 0.00 | 0.54 | 0.07 | 69 | 1012.8 |
| 20260903194556 | 85 | 250 | 2.0 | 10.0 | 0.00 | 0.54 | 0.07 | 69 | 1012.7 |
| 20260903194056 | 85 | 240 | 3.0 | 9.0 | 0.00 | 0.54 | 0.07 | 68 | 1012.6 |
| 20260903193558 | 85 | 229 | 3.0 | 9.0 | 0.00 | 0.54 | 0.07 | 69 | 1012.6 |
| 20260903193053 | 84 | 240 | 2.0 | 9.0 | 0.00 | 0.54 | 0.07 | 70 | 1012.6 |
| 20260903192553 | 84 | 239 | 4.0 | 9.0 | 0.00 | 0.54 | 0.07 | 69 | 1012.8 |
| 20260903192050 | 84 | 268 | 2.0 | 9.0 | 0.00 | 0.54 | 0.07 | 72 | 1012.9 |
| 20260903191549 | 83 | 284 | 3.0 | 8.0 | 0.00 | 0.54 | 0.07 | 73 | 1012.9 |
| 20260903191048 | 83 | 250 | 2.0 | 8.0 | 0.00 | 0.54 | 0.07 | 73 | 1013.0 |
| 20260903190547 | 83 | 218 | 3.0 | 8.0 | 0.00 | 0.54 | 0.07 | 75 | 1013.0 |
| 20260903190046 | 82 | 247 | 0.0 | 8.0 | 0.00 | 0.54 | 0.07 | 75 | 1013.2 |
| 20260903185544 | 82 | 232 | 3.0 | 10.0 | 0.00 | 0.54 | 0.07 | 73 | 1013.4 |
| 20260903185044 | 82 | 289 | 4.0 | 10.0 | 0.00 | 0.54 | 0.07 | 73 | 1013.4 |
| 20260903184544 | 82 | 215 | 2.0 | 8.0 | 0.00 | 0.54 | 0.07 | 73 | 1013.4 |
| 20260903184043 | 82 | 250 | 4.0 | 8.0 | 0.00 | 0.54 | 0.07 | 74 | 1013.4 |
| 20260903183542 | 82 | 279 | 2.0 | 10.0 | 0.00 | 0.54 | 0.07 | 75 | 1013.5 |
| 20260903183042 | 82 | 319 | 1.0 | 10.0 | 0.00 | 0.54 | 0.07 | 74 | 1013.4 |
| 20260903182541 | 82 | 213 | 1.0 | 8.0 | 0.00 | 0.54 | 0.07 | 79 | 1013.5 |
| 20260903182041 | 81 | 229 | 0.0 | 7.0 | 0.00 | 0.54 | 0.07 | 78 | 1013.5 |
| 20260903181539 | 81 | 257 | 0.0 | 0.0 | 0.00 | 0.54 | 0.07 | 79 | 1013.5 |
| 20260903181039 | 81 | 253 | 0.0 | 0.0 | 0.00 | 0.54 | 0.07 | 78 | 1013.6 |
| 20260903180538 | 81 | 253 | 0.0 | 2.0 | 0.00 | 0.54 | 0.07 | 77 | 1013.7 |
| 20260903180038 | 81 | 254 | 0.0 | 1.0 | 0.00 | 0.54 | 0.07 | 78 | 1013.7 |
| 20260903175537 | 81 | 254 | 0.0 | 0.0 | 0.00 | 0.54 | 0.07 | 77 | 1013.7 |
| 20260903175037 | 81 | 254 | 0.0 | 3.0 | 0.00 | 0.54 | 0.07 | 77 | 1013.7 |
| 20260903174556 | 81 | 275 | 0.0 | 5.0 | 0.00 | 0.54 | 0.07 | 77 | 1013.7 |
| 20260903174038 | 81 | 305 | 0.0 | 7.0 | 0.00 | 0.54 | 0.07 | 76 | 1013.6 |
| 20260903173535 | 81 | 230 | 2.0 | 8.0 | 0.00 | 0.54 | 0.07 | 77 | 1013.7 |
| 20260903173039 | 81 | 281 | 3.0 | 8.0 | 0.00 | 0.54 | 0.07 | 78 | 1013.9 |
| 20260903172534 | 80 | 244 | 2.0 | 8.0 | 0.00 | 0.54 | 0.07 | 77 | 1013.9 |
| 20260903172033 | 80 | 233 | 4.0 | 8.0 | 0.00 | 0.54 | 0.07 | 78 | 1013.9 |
| 20260903171534 | 80 | 163 | 1.0 | 6.0 | 0.00 | 0.54 | 0.07 | 80 | 1013.9 |
| 20260903171031 | 79 | 269 | 2.0 | 6.0 | 0.00 | 0.54 | 0.07 | 80 | 1014.0 |
| 20260903170532 | 79 | 196 | 0.0 | 6.0 | 0.00 | 0.54 | 0.07 | 81 | 1014.0 |
| 20260903170034 | 78 | 180 | 0.0 | 6.0 | 0.00 | 0.54 | 0.07 | 83 | 1014.0 |
| 20260903165527 | 78 | 239 | 1.0 | 6.0 | 0.00 | 0.54 | 0.07 | 83 | 1014.0 |
| 20260903165027 | 78 | 250 | 2.0 | 9.0 | 0.00 | 0.54 | 0.07 | 83 | 1014.1 |
| 20260903164525 | 78 | 270 | 4.0 | 9.0 | 0.00 | 0.54 | 0.07 | 85 | 1014.1 |
| 20260903164025 | 77 | 246 | 0.0 | 0.0 | 0.00 | 0.54 | 0.07 | 86 | 1014.2 |
| 20260903163524 | 77 | 243 | 0.0 | 0.0 | 0.00 | 0.54 | 0.07 | 87 | 1014.2 |
| 20260903163023 | 77 | 219 | 0.0 | 0.0 | 0.00 | 0.54 | 0.07 | 87 | 1014.3 |
| 20260903162523 | 77 | 217 | 0.0 | 0.0 | 0.00 | 0.54 | 0.07 | 87 | 1014.3 |
| 20260903162023 | 76 | 236 | 0.0 | 0.0 | 0.00 | 0.54 | 0.07 | 88 | 1014.4 |
| 20260903161524 | 76 | 217 | 0.0 | 2.0 | 0.00 | 0.54 | 0.07 | 88 | 1014.5 |
| 20260903161024 | 76 | 247 | 0.0 | 7.0 | 0.00 | 0.54 | 0.07 | 88 | 1014.4 |
| 20260903160519 | 76 | 252 | 2.0 | 7.0 | 0.00 | 0.54 | 0.07 | 89 | 1014.4 |
| 20260903160019 | 75 | 236 | 0.0 | 6.0 | 0.00 | 0.54 | 0.07 | 90 | 1014.5 |
| 20260903155519 | 75 | 277 | 1.0 | 7.0 | 0.00 | 0.56 | 0.07 | 91 | 1014.5 |
| 20260903155018 | 75 | 254 | 3.0 | 10.0 | 0.00 | 0.56 | 0.07 | 92 | 1014.6 |
| 20260903154516 | 75 | 248 | 3.0 | 10.0 | 0.00 | 0.56 | 0.07 | 93 | 1014.7 |
| 20260903154017 | 75 | 266 | 4.0 | 9.0 | 0.00 | 0.56 | 0.07 | 93 | 1014.8 |
| 20260903153516 | 75 | 128 | 0.0 | 8.0 | 0.00 | 0.56 | 0.07 | 94 | 1014.8 |
| 20260903153013 | 74 | 260 | 3.0 | 8.0 | 0.00 | 0.56 | 0.07 | 94 | 1014.9 |
| 20260903152513 | 73 | 289 | 1.0 | 4.0 | 0.00 | 0.56 | 0.07 | 94 | 1014.9 |
| 20260903152010 | 73 | 232 | 2.0 | 5.0 | 0.00 | 0.56 | 0.07 | 94 | 1014.9 |
| 20260903151510 | 73 | 333 | 2.0 | 8.0 | 0.00 | 0.56 | 0.07 | 94 | 1015.0 |
| 20260903151008 | 73 | 321 | 3.0 | 8.0 | 0.00 | 0.56 | 0.07 | 94 | 1014.9 |
| 20260903150507 | 73 | 280 | 2.0 | 4.0 | 0.00 | 0.56 | 0.07 | 94 | 1014.9 |
| 20260903150006 | 73 | 258 | 0.0 | 0.0 | 0.00 | 0.56 | 0.07 | 94 | 1014.9 |
| 20260903145508 | 72 | 258 | 0.0 | 0.0 | 0.00 | 0.88 | 0.07 | 94 | 1014.9 |
| 20260903145003 | 72 | 258 | 0.0 | 0.0 | 0.00 | 0.88 | 0.07 | 94 | 1014.9 |
| 20260903144502 | 72 | 283 | 0.0 | 0.0 | 0.00 | 0.88 | 0.07 | 94 | 1014.9 |
| 20260903144002 | 72 | 283 | 0.0 | 0.0 | 0.00 | 0.88 | 0.07 | 94 | 1015.0 |
| 20260903143559 | 71 | 283 | 0.0 | 0.0 | 0.00 | 0.88 | 0.07 | 94 | 1014.9 |
| 20260903143058 | 71 | 283 | 0.0 | 1.0 | 0.00 | 0.88 | 0.07 | 94 | 1014.9 |
| 20260903142558 | 71 | 283 | 0.0 | 2.0 | 0.00 | 0.88 | 0.07 | 94 | 1015.0 |
| 20260903142057 | 71 | 283 | 0.0 | 2.0 | 0.00 | 0.88 | 0.07 | 94 | 1015.1 |
| 20260903141554 | 71 | 283 | 0.0 | 2.0 | 0.00 | 0.88 | 0.07 | 94 | 1014.9 |
| 20260903141054 | 71 | 283 | 0.0 | 2.0 | 0.00 | 0.88 | 0.07 | 94 | 1014.9 |
| 20260903140554 | 71 | 283 | 0.0 | 3.0 | 0.00 | 0.88 | 0.07 | 94 | 1015.1 |
| 20260903140054 | 71 | 288 | 0.0 | 5.0 | 0.00 | 0.88 | 0.07 | 94 | 1014.9 |
| 20260903135555 | 71 | 246 | 1.0 | 5.0 | 0.00 | 0.88 | 0.07 | 94 | 1015.0 |
| 20260903135053 | 71 | 202 | 1.0 | 4.0 | 0.00 | 0.88 | 0.07 | 94 | 1015.0 |
| 20260903134557 | 71 | 250 | 1.0 | 5.0 | 0.00 | 0.88 | 0.07 | 94 | 1015.0 |
| 20260903134049 | 71 | 240 | 2.0 | 5.0 | 0.00 | 0.88 | 0.07 | 94 | 1014.9 |
| 20260903133551 | 71 | 290 | 2.0 | 7.0 | 0.00 | 0.88 | 0.07 | 94 | 1014.9 |
| 20260903133052 | 71 | 224 | 3.0 | 7.0 | 0.00 | 0.88 | 0.07 | 94 | 1014.8 |
| 20260903132547 | 71 | 259 | 0.0 | 4.0 | 0.00 | 0.88 | 0.07 | 94 | 1014.7 |
| 20260903132044 | 71 | 244 | 1.0 | 4.0 | 0.00 | 0.88 | 0.07 | 94 | 1014.7 |
| 20260903131552 | 71 | 230 | 0.0 | 4.0 | 0.00 | 0.88 | 0.07 | 94 | 1014.7 |
| 20260903131045 | 70 | 209 | 0.0 | 4.0 | 0.00 | 0.88 | 0.07 | 94 | 1014.8 |
| 20260903130544 | 70 | 266 | 1.0 | 3.0 | 0.00 | 0.88 | 0.07 | 94 | 1014.9 |
| 20260903130044 | 69 | 248 | 0.0 | 2.0 | 0.01 | 0.88 | 0.07 | 94 | 1014.9 |
| 20260903125540 | 69 | 248 | 0.0 | 2.0 | 0.01 | 0.88 | 0.07 | 94 | 1015.1 |
| 20260903125039 | 69 | 166 | 0.0 | 0.0 | 0.01 | 0.88 | 0.07 | 94 | 1015.0 |
| 20260903124541 | 68 | 165 | 0.0 | 0.0 | 0.01 | 0.88 | 0.07 | 94 | 1015.0 |
| 20260903124039 | 68 | 165 | 0.0 | 0.0 | 0.01 | 0.88 | 0.07 | 94 | 1015.0 |
| 20260903123539 | 68 | 165 | 0.0 | 0.0 | 0.01 | 0.88 | 0.07 | 94 | 1015.1 |
| 20260903123039 | 68 | 165 | 0.0 | 0.0 | 0.01 | 0.88 | 0.07 | 94 | 1015.1 |
| 20260903122543 | 68 | 165 | 0.0 | 0.0 | 0.01 | 0.88 | 0.07 | 94 | 1015.0 |
| 20260903122040 | 67 | 164 | 0.0 | 0.0 | 0.01 | 0.88 | 0.07 | 94 | 1014.9 |
| 20260903121541 | 67 | 164 | 0.0 | 0.0 | 0.01 | 0.88 | 0.07 | 94 | 1014.8 |
| 20260903121039 | 67 | 164 | 0.0 | 0.0 | 0.01 | 0.88 | 0.07 | 94 | 1014.8 |
| 20260903120539 | 67 | 165 | 0.0 | 0.0 | 0.01 | 0.88 | 0.07 | 93 | 1014.7 |
| 20260903120042 | 67 | 164 | 0.0 | 0.0 | 0.00 | 0.87 | 0.06 | 93 | 1014.6 |
| 20260903115538 | 66 | 164 | 0.0 | 0.0 | 0.00 | 0.87 | 0.06 | 93 | 1014.5 |
| 20260903115041 | 66 | 164 | 0.0 | 0.0 | 0.00 | 0.87 | 0.06 | 93 | 1014.5 |
| 20260903114538 | 66 | 164 | 0.0 | 0.0 | 0.00 | 0.87 | 0.06 | 93 | 1014.6 |
| 20260903114037 | 66 | 164 | 0.0 | 0.0 | 0.00 | 0.87 | 0.06 | 93 | 1014.6 |
| 20260903113537 | 66 | 164 | 0.0 | 0.0 | 0.00 | 0.87 | 0.06 | 93 | 1014.6 |
| 20260903113037 | 66 | 164 | 0.0 | 0.0 | 0.00 | 0.87 | 0.06 | 93 | 1014.6 |
| 20260903112542 | 66 | 164 | 0.0 | 0.0 | 0.00 | 0.87 | 0.06 | 93 | 1014.5 |
| 20260903112037 | 66 | 164 | 0.0 | 0.0 | 0.00 | 0.87 | 0.06 | 93 | 1014.2 |
| 20260903111604 | 66 | 164 | 0.0 | 0.0 | 0.00 | 0.87 | 0.06 | 93 | 1014.2 |
| 20260903111138 | 66 | 164 | 0.0 | 0.0 | 0.00 | 0.87 | 0.06 | 93 | 1014.2 |
| 20260903110537 | 66 | 164 | 0.0 | 0.0 | 0.00 | 0.87 | 0.06 | 93 | 1014.3 |
| 20260903110040 | 66 | 164 | 0.0 | 0.0 | 0.00 | 0.87 | 0.06 | 93 | 1014.2 |
| 20260903105539 | 66 | 164 | 0.0 | 0.0 | 0.00 | 0.87 | 0.06 | 93 | 1014.2 |
| 20260903105039 | 66 | 164 | 0.0 | 0.0 | 0.00 | 0.87 | 0.06 | 93 | 1014.2 |
| 20260903104547 | 66 | 164 | 0.0 | 0.0 | 0.00 | 0.87 | 0.06 | 93 | 1014.2 |
| 20260903104035 | 66 | 164 | 0.0 | 0.0 | 0.00 | 0.87 | 0.06 | 93 | 1014.1 |
| 20260903103538 | 66 | 164 | 0.0 | 0.0 | 0.00 | 0.87 | 0.06 | 93 | 1014.1 |
| 20260903103035 | 66 | 164 | 0.0 | 0.0 | 0.00 | 0.87 | 0.06 | 93 | 1014.0 |
| 20260903102535 | 66 | 164 | 0.0 | 0.0 | 0.00 | 0.87 | 0.06 | 93 | 1014.1 |
| 20260903102034 | 66 | 164 | 0.0 | 0.0 | 0.00 | 0.87 | 0.06 | 93 | 1014.2 |
| 20260903101541 | 66 | 164 | 0.0 | 0.0 | 0.00 | 0.87 | 0.06 | 93 | 1014.3 |
| 20260903101034 | 66 | 164 | 0.0 | 0.0 | 0.00 | 0.87 | 0.06 | 93 | 1014.3 |
| 20260903100533 | 66 | 164 | 0.0 | 0.0 | 0.00 | 0.87 | 0.06 | 93 | 1014.3 |
| 20260903100034 | 66 | 164 | 0.0 | 0.0 | 0.00 | 0.87 | 0.06 | 93 | 1014.4 |
| 20260903095533 | 66 | 164 | 0.0 | 0.0 | 0.00 | 0.87 | 0.06 | 93 | 1014.3 |
| 20260903095033 | 66 | 164 | 0.0 | 0.0 | 0.00 | 0.87 | 0.06 | 93 | 1014.4 |
| 20260903094532 | 66 | 164 | 0.0 | 0.0 | 0.00 | 0.87 | 0.06 | 93 | 1014.5 |
| 20260903094033 | 66 | 164 | 0.0 | 0.0 | 0.00 | 0.87 | 0.06 | 93 | 1014.6 |
| 20260903093537 | 66 | 164 | 0.0 | 0.0 | 0.00 | 0.87 | 0.06 | 93 | 1014.8 |
| 20260903093038 | 66 | 164 | 0.0 | 0.0 | 0.00 | 0.87 | 0.06 | 93 | 1014.8 |
| 20260903092532 | 66 | 164 | 0.0 | 0.0 | 0.00 | 0.87 | 0.06 | 93 | 1014.8 |
| 20260903092031 | 67 | 164 | 0.0 | 0.0 | 0.00 | 0.87 | 0.06 | 93 | 1014.6 |
| 20260903091533 | 66 | 164 | 0.0 | 0.0 | 0.00 | 0.87 | 0.06 | 93 | 1014.6 |
| 20260903091031 | 67 | 164 | 0.0 | 0.0 | 0.00 | 0.87 | 0.06 | 93 | 1014.9 |
| 20260903090531 | 67 | 164 | 0.0 | 0.0 | 0.00 | 0.87 | 0.06 | 93 | 1014.6 |
| 20260903090031 | 67 | 164 | 0.0 | 0.0 | 0.00 | 0.87 | 0.06 | 93 | 1014.6 |
| 20260903085531 | 67 | 164 | 0.0 | 0.0 | 0.00 | 0.87 | 0.06 | 93 | 1014.6 |
| 20260903085031 | 67 | 164 | 0.0 | 0.0 | 0.00 | 0.87 | 0.06 | 93 | 1014.6 |
| 20260903084534 | 67 | 163 | 0.0 | 0.0 | 0.00 | 0.87 | 0.06 | 93 | 1014.5 |
| 20260903084030 | 67 | 163 | 0.0 | 0.0 | 0.00 | 0.87 | 0.06 | 93 | 1014.4 |
| 20260903083530 | 67 | 163 | 0.0 | 0.0 | 0.00 | 0.87 | 0.06 | 93 | 1014.2 |
| 20260903083029 | 67 | 163 | 0.0 | 0.0 | 0.00 | 0.87 | 0.06 | 93 | 1014.1 |
| 20260903082529 | 67 | 163 | 0.0 | 0.0 | 0.00 | 0.87 | 0.06 | 93 | 1014.3 |
| 20260903082029 | 67 | 163 | 0.0 | 0.0 | 0.00 | 0.87 | 0.06 | 93 | 1014.5 |
| 20260903081529 | 67 | 163 | 0.0 | 0.0 | 0.00 | 0.87 | 0.06 | 93 | 1014.5 |
| 20260903081032 | 67 | 163 | 0.0 | 0.0 | 0.00 | 0.87 | 0.06 | 93 | 1014.5 |
| 20260903080531 | 67 | 163 | 0.0 | 0.0 | 0.00 | 0.87 | 0.06 | 93 | 1014.6 |
| 20260903080027 | 67 | 163 | 0.0 | 0.0 | 0.00 | 0.87 | 0.06 | 93 | 1014.6 |
| 20260903075527 | 67 | 163 | 0.0 | 0.0 | 0.00 | 0.87 | 0.06 | 93 | 1014.5 |
| 20260903075027 | 67 | 163 | 0.0 | 0.0 | 0.00 | 0.87 | 0.06 | 93 | 1014.6 |
| 20260903074526 | 67 | 163 | 0.0 | 0.0 | 0.00 | 0.87 | 0.06 | 93 | 1014.6 |
| 20260903074026 | 67 | 163 | 0.0 | 0.0 | 0.00 | 0.87 | 0.06 | 93 | 1014.5 |
| 20260903073528 | 67 | 163 | 0.0 | 0.0 | 0.00 | 0.87 | 0.06 | 93 | 1014.8 |
| 20260903073039 | 67 | 163 | 0.0 | 0.0 | 0.00 | 0.87 | 0.06 | 92 | 1014.8 |
| 20260903072525 | 67 | 163 | 0.0 | 0.0 | 0.00 | 0.87 | 0.06 | 92 | 1014.6 |
| 20260903072025 | 67 | 163 | 0.0 | 0.0 | 0.00 | 0.87 | 0.06 | 92 | 1014.5 |
| 20260903071526 | 67 | 163 | 0.0 | 0.0 | 0.00 | 0.87 | 0.06 | 92 | 1014.4 |
| 20260903071025 | 67 | 163 | 0.0 | 0.0 | 0.00 | 0.87 | 0.06 | 92 | 1014.2 |
| 20260903070528 | 67 | 163 | 0.0 | 1.0 | 0.00 | 0.87 | 0.06 | 92 | 1014.3 |
| 20260903070035 | 67 | 132 | 0.0 | 2.0 | 0.00 | 0.87 | 0.06 | 92 | 1014.2 |
| 20260903065523 | 67 | 132 | 0.0 | 2.0 | 0.00 | 0.87 | 0.06 | 92 | 1014.5 |
| 20260903065023 | 67 | 132 | 0.0 | 2.0 | 0.00 | 0.87 | 0.06 | 92 | 1014.9 |
| 20260903064523 | 67 | 335 | 0.0 | 0.0 | 0.00 | 0.87 | 0.06 | 92 | 1014.9 |
| 20260903064023 | 67 | 331 | 0.0 | 0.0 | 0.00 | 0.87 | 0.06 | 92 | 1014.8 |
| 20260903063523 | 67 | 331 | 0.0 | 0.0 | 0.00 | 0.87 | 0.06 | 92 | 1014.5 |
| 20260903063026 | 67 | 331 | 0.0 | 0.0 | 0.00 | 0.87 | 0.06 | 92 | 1014.5 |
| 20260903062525 | 67 | 331 | 0.0 | 0.0 | 0.00 | 0.87 | 0.06 | 92 | 1014.6 |
| 20260903062026 | 67 | 331 | 0.0 | 0.0 | 0.00 | 0.87 | 0.06 | 92 | 1014.7 |
| 20260903061534 | 67 | 331 | 0.0 | 3.0 | 0.00 | 0.87 | 0.06 | 92 | 1014.6 |
| 20260903061020 | 67 | 331 | 1.0 | 4.0 | 0.00 | 0.87 | 0.06 | 92 | 1014.7 |
| 20260903060521 | 67 | 311 | 0.0 | 6.0 | 0.00 | 0.87 | 0.06 | 92 | 1014.8 |
| 20260903060020 | 67 | 284 | 2.0 | 9.0 | 0.00 | 0.87 | 0.06 | 92 | 1015.1 |
| 20260903055520 | 67 | 286 | 4.0 | 9.0 | 0.00 | 0.87 | 0.06 | 92 | 1015.0 |
| 20260903055019 | 67 | 236 | 3.0 | 8.0 | 0.00 | 0.87 | 0.06 | 92 | 1014.9 |
| 20260903054519 | 67 | 241 | 3.0 | 8.0 | 0.00 | 0.87 | 0.06 | 92 | 1014.9 |
| 20260903054019 | 67 | 262 | 2.0 | 6.0 | 0.01 | 0.87 | 0.06 | 92 | 1014.7 |
| 20260903053519 | 67 | 217 | 0.0 | 8.0 | 0.01 | 0.87 | 0.06 | 92 | 1014.7 |
| 20260903053018 | 68 | 173 | 3.0 | 9.0 | 0.02 | 0.87 | 0.06 | 92 | 1015.0 |
| 20260903052518 | 68 | 239 | 4.0 | 9.0 | 0.03 | 0.87 | 0.06 | 92 | 1015.0 |
| 20260903052018 | 68 | 215 | 3.0 | 8.0 | 0.03 | 0.87 | 0.06 | 92 | 1014.8 |
| 20260903051517 | 68 | 157 | 1.0 | 9.0 | 0.04 | 0.87 | 0.06 | 92 | 1015.0 |
| 20260903051016 | 68 | 148 | 3.0 | 9.0 | 0.04 | 0.87 | 0.06 | 92 | 1015.1 |
| 20260903050516 | 68 | 203 | 4.0 | 9.0 | 0.05 | 0.87 | 0.06 | 92 | 1015.0 |
| 20260903050016 | 68 | 228 | 1.0 | 9.0 | 0.06 | 0.87 | 0.06 | 92 | 1015.0 |
| 20260903045515 | 68 | 188 | 6.0 | 12.0 | 0.07 | 0.87 | 0.06 | 92 | 1014.8 |
| 20260903045014 | 68 | 142 | 3.0 | 12.0 | 0.08 | 0.87 | 0.06 | 92 | 1015.2 |
| 20260903044516 | 68 | 174 | 4.0 | 12.0 | 0.09 | 0.87 | 0.06 | 92 | 1015.0 |
| 20260903044013 | 68 | 130 | 5.0 | 12.0 | 0.09 | 0.86 | 0.05 | 92 | 1015.0 |
| 20260903043513 | 68 | 187 | 5.0 | 13.0 | 0.10 | 0.86 | 0.05 | 91 | 1015.6 |
| 20260903043011 | 68 | 173 | 3.0 | 9.0 | 0.09 | 0.85 | 0.04 | 91 | 1015.9 |
| 20260903042512 | 69 | 75 | 3.0 | 8.0 | 0.08 | 0.84 | 0.03 | 91 | 1016.1 |
| 20260903042008 | 69 | 286 | 2.0 | 10.0 | 0.09 | 0.84 | 0.03 | 91 | 1016.4 |
| 20260903041507 | 69 | 185 | 2.0 | 10.0 | 0.09 | 0.83 | 0.02 | 91 | 1016.8 |
| 20260903041006 | 69 | 215 | 2.0 | 9.0 | 0.10 | 0.83 | 0.02 | 91 | 1017.2 |
| 20260903040505 | 69 | 222 | 3.0 | 9.0 | 0.09 | 0.81 | 0.00 | 91 | 1017.5 |
| 20260903040004 | 69 | 200 | 1.0 | 9.0 | 0.10 | 0.81 | 0.00 | 91 | 1017.5 |
| 20260903035507 | 69 | 272 | 1.0 | 9.0 | 0.10 | 0.80 | 0.80 | 91 | 1017.3 |
| 20260903035003 | 69 | 242 | 3.0 | 9.0 | 0.11 | 0.79 | 0.79 | 91 | 1017.4 |
| 20260903034509 | 70 | 204 | 3.0 | 9.0 | 0.11 | 0.78 | 0.78 | 91 | 1016.8 |
| 20260903034002 | 70 | 219 | 4.0 | 9.0 | 0.12 | 0.77 | 0.77 | 91 | 1016.1 |
| 20260903033504 | 70 | 255 | 3.0 | 8.0 | 0.12 | 0.76 | 0.76 | 91 | 1015.7 |
| 20260903033003 | 70 | 140 | 1.0 | 4.0 | 0.13 | 0.76 | 0.76 | 91 | 1015.2 |
| 20260903032503 | 70 | 159 | 0.0 | 5.0 | 0.14 | 0.75 | 0.75 | 91 | 1015.2 |
| 20260903032003 | 70 | 166 | 2.0 | 5.0 | 0.14 | 0.75 | 0.75 | 91 | 1015.5 |
| 20260903031503 | 70 | 167 | 1.0 | 10.0 | 0.14 | 0.74 | 0.74 | 91 | 1015.6 |
| 20260903031002 | 70 | 171 | 2.0 | 10.0 | 0.14 | 0.73 | 0.73 | 91 | 1015.6 |
| 20260903030502 | 70 | 159 | 2.0 | 8.0 | 0.18 | 0.72 | 0.72 | 91 | 1015.6 |
| 20260903030001 | 71 | 152 | 2.0 | 8.0 | 0.26 | 0.70 | 0.70 | 91 | 1015.8 |
| 20260903025504 | 71 | 123 | 2.0 | 7.0 | 0.33 | 0.70 | 0.70 | 91 | 1016.2 |
| 20260903025002 | 71 | 188 | 2.0 | 8.0 | 0.31 | 0.68 | 0.68 | 91 | 1016.5 |
| 20260903024600 | 71 | 156 | 2.0 | 9.0 | 0.30 | 0.67 | 0.67 | 91 | 1016.8 |
| 20260903024101 | 71 | 251 | 3.0 | 12.0 | 0.28 | 0.65 | 0.65 | 90 | 1017.1 |
| 20260903023501 | 71 | 219 | 5.0 | 12.0 | 0.28 | 0.64 | 0.64 | 91 | 1017.5 |
| 20260903023002 | 71 | 267 | 2.0 | 8.0 | 0.26 | 0.62 | 0.62 | 90 | 1017.5 |
| 20260903022602 | 71 | 256 | 2.0 | 8.0 | 0.25 | 0.61 | 0.61 | 90 | 1017.5 |
| 20260903022100 | 71 | 150 | 1.0 | 12.0 | 0.26 | 0.61 | 0.61 | 90 | 1017.4 |
| 20260903021601 | 72 | 229 | 4.0 | 12.0 | 0.25 | 0.60 | 0.60 | 90 | 1017.2 |
| 20260903021100 | 72 | 341 | 2.0 | 7.0 | 0.24 | 0.59 | 0.59 | 90 | 1017.1 |
| 20260903020600 | 72 | 136 | 2.0 | 8.0 | 0.20 | 0.55 | 0.55 | 90 | 1017.5 |
| 20260903020058 | 72 | 227 | 2.0 | 9.0 | 0.09 | 0.44 | 0.44 | 90 | 1018.5 |
| 20260903015558 | 72 | 284 | 1.0 | 8.0 | 0.02 | 0.37 | 0.37 | 89 | 1017.7 |
| 20260903015058 | 72 | 29 | 1.0 | 9.0 | 0.02 | 0.37 | 0.37 | 89 | 1015.8 |
| 20260903014609 | 72 | 232 | 3.0 | 10.0 | 0.02 | 0.37 | 0.37 | 89 | 1015.9 |
| 20260903014100 | 72 | 159 | 0.0 | 5.0 | 0.01 | 0.36 | 0.36 | 89 | 1015.4 |
| 20260903013602 | 72 | 126 | 0.0 | 4.0 | 0.01 | 0.36 | 0.36 | 89 | 1016.1 |
| 20260903013102 | 72 | 169 | 2.0 | 7.0 | 0.01 | 0.36 | 0.36 | 89 | 1016.2 |
| 20260903012556 | 72 | 161 | 1.0 | 7.0 | 0.01 | 0.36 | 0.36 | 88 | 1016.5 |
| 20260903012056 | 72 | 311 | 0.0 | 0.0 | 0.00 | 0.35 | 0.35 | 88 | 1016.5 |
| 20260903011608 | 72 | 311 | 0.0 | 0.0 | 0.00 | 0.35 | 0.35 | 88 | 1016.6 |
| 20260903011057 | 72 | 311 | 0.0 | 0.0 | 0.00 | 0.35 | 0.35 | 88 | 1016.5 |
| 20260903010556 | 72 | 311 | 0.0 | 0.0 | 0.00 | 0.35 | 0.35 | 88 | 1016.3 |
| 20260903010116 | 73 | 312 | 0.0 | 0.0 | 0.00 | 0.35 | 0.35 | 88 | 1016.1 |
| 20260903005557 | 73 | 215 | 0.0 | 0.0 | 0.00 | 0.35 | 0.35 | 88 | 1015.9 |
| 20260903005055 | 73 | 215 | 0.0 | 0.0 | 0.00 | 0.35 | 0.35 | 88 | 1015.7 |
| 20260903004556 | 73 | 215 | 0.0 | 1.0 | 0.00 | 0.35 | 0.35 | 88 | 1015.5 |
| 20260903004055 | 73 | 215 | 0.0 | 4.0 | 0.00 | 0.35 | 0.35 | 88 | 1015.3 |
| 20260903003556 | 73 | 36 | 1.0 | 4.0 | 0.00 | 0.35 | 0.35 | 88 | 1015.1 |
| 20260903003055 | 73 | 334 | 1.0 | 8.0 | 0.00 | 0.35 | 0.35 | 88 | 1015.1 |
| 20260903002555 | 73 | 42 | 2.0 | 8.0 | 0.00 | 0.35 | 0.35 | 87 | 1014.7 |
| 20260903002054 | 73 | 348 | 2.0 | 7.0 | 0.00 | 0.35 | 0.35 | 87 | 1014.9 |
| 20260903001555 | 73 | 121 | 0.0 | 5.0 | 0.00 | 0.35 | 0.35 | 87 | 1015.3 |
| 20260903001056 | 73 | 250 | 3.0 | 6.0 | 0.00 | 0.35 | 0.35 | 87 | 1015.4 |